TimeGMT,TemperatureF,Dew PointF,Humidity,Sea Level PressureIn,VisibilityMPH,Wind Direction,Wind SpeedMPH,Gust SpeedMPH,PrecipitationIn,Events,Conditions,WindDirDegrees,DateUTC
12:00 AM,42,37,76,29.50,31,WSW,20.1,,,,Scattered Clouds,250,2012-11-23 00:00:00
12:00 AM,42.8,37.4,81,29.47,6.2,WSW,18.4,-,N/A,,Mostly Cloudy,250,2012-11-23 00:00:00
12:30 AM,41.0,37.4,87,29.50,6.2,WSW,19.6,-,N/A,,Mostly Cloudy,240,2012-11-23 00:30:00
1:00 AM,42.8,37.4,81,29.50,6.2,WSW,20.7,-,N/A,,Mostly Cloudy,240,2012-11-23 01:00:00
1:30 AM,42.8,37.4,81,29.53,6.2,WSW,19.6,-,N/A,,Mostly Cloudy,240,2012-11-23 01:30:00
2:00 AM,41.0,37.4,87,29.53,6.2,WSW,19.6,-,N/A,,Scattered Clouds,240,2012-11-23 02:00:00
3:00 AM,41.0,37.4,87,29.56,6.2,WSW,17.3,-,N/A,,Scattered Clouds,240,2012-11-23 03:00:00
3:30 AM,41.0,37.4,87,29.56,6.2,SW,17.3,-,N/A,,Partly Cloudy,230,2012-11-23 03:30:00
4:00 AM,41.0,37.4,87,29.59,6.2,SW,18.4,-,N/A,,Partly Cloudy,230,2012-11-23 04:00:00
4:30 AM,41.0,35.6,81,29.59,6.2,SW,17.3,-,N/A,,Partly Cloudy,230,2012-11-23 04:30:00
5:00 AM,41.0,35.6,81,29.62,6.2,SW,16.1,-,N/A,,Partly Cloudy,230,2012-11-23 05:00:00
5:30 AM,41.0,35.6,81,29.62,6.2,SW,13.8,-,N/A,,Partly Cloudy,230,2012-11-23 05:30:00
6:00 AM,41,36,77,29.65,31,SW,15.7,,,,Scattered Clouds,230,2012-11-23 06:00:00
6:00 AM,41.0,35.6,81,29.62,6.2,SW,15.0,-,N/A,,Scattered Clouds,230,2012-11-23 06:00:00
6:30 AM,41.0,35.6,81,29.62,6.2,SW,10.4,-,N/A,,Scattered Clouds,220,2012-11-23 06:30:00
7:00 AM,41.0,35.6,81,29.65,6.2,SW,8.1,-,N/A,,Mostly Cloudy,220,2012-11-23 07:00:00
7:30 AM,41.0,35.6,81,29.65,6.2,SW,10.4,-,N/A,,Mostly Cloudy,220,2012-11-23 07:30:00
8:00 AM,41.0,35.6,81,29.68,6.2,SW,11.5,-,N/A,,Mostly Cloudy,220,2012-11-23 08:00:00
8:30 AM,41.0,35.6,81,29.68,6.2,SSW,9.2,-,N/A,,Mostly Cloudy,210,2012-11-23 08:30:00
9:00 AM,41.0,35.6,81,29.68,6.2,SW,10.4,-,N/A,,Mostly Cloudy,220,2012-11-23 09:00:00
9:30 AM,42.8,35.6,76,29.71,6.2,SW,12.7,-,N/A,,Partly Cloudy,220,2012-11-23 09:30:00
10:00 AM,42.8,35.6,76,29.71,6.2,SW,15.0,-,N/A,,Partly Cloudy,230,2012-11-23 10:00:00
10:30 AM,42.8,35.6,76,29.71,6.2,SW,17.3,-,N/A,,Partly Cloudy,230,2012-11-23 10:30:00
11:00 AM,42.8,37.4,81,29.71,6.2,SW,16.1,-,N/A,,Partly Cloudy,230,2012-11-23 11:00:00
11:30 AM,44.6,37.4,76,29.71,6.2,SW,15.0,-,N/A,,Partly Cloudy,230,2012-11-23 11:30:00
12:00 PM,45,37,64,29.74,37,SW,15.7,,,,Scattered Clouds,230,2012-11-23 12:00:00
12:00 PM,44.6,37.4,76,29.71,6.2,SW,15.0,-,N/A,,Partly Cloudy,230,2012-11-23 12:00:00
12:30 PM,46.4,37.4,71,29.74,6.2,SW,16.1,-,N/A,,Partly Cloudy,220,2012-11-23 12:30:00
1:00 PM,46.4,37.4,71,29.74,6.2,SW,16.1,-,N/A,,Partly Cloudy,230,2012-11-23 13:00:00
1:30 PM,46.4,37.4,71,29.74,6.2,WSW,19.6,-,N/A,,Partly Cloudy,240,2012-11-23 13:30:00
2:00 PM,46.4,37.4,71,29.74,6.2,SW,17.3,-,N/A,,Partly Cloudy,230,2012-11-23 14:00:00
2:30 PM,46.4,37.4,71,29.74,6.2,WSW,16.1,-,N/A,,Partly Cloudy,240,2012-11-23 14:30:00
3:00 PM,44.6,35.6,71,29.77,6.2,WSW,19.6,-,N/A,,Partly Cloudy,240,2012-11-23 15:00:00
3:30 PM,44.6,35.6,71,29.77,6.2,WSW,13.8,-,N/A,,Partly Cloudy,240,2012-11-23 15:30:00
4:00 PM,42.8,35.6,76,29.77,6.2,SW,10.4,-,N/A,,Partly Cloudy,230,2012-11-23 16:00:00
4:30 PM,42.8,35.6,76,29.77,6.2,SW,10.4,-,N/A,,Partly Cloudy,230,2012-11-23 16:30:00
5:00 PM,42.8,35.6,76,29.80,6.2,SW,11.5,-,N/A,,Partly Cloudy,230,2012-11-23 17:00:00
5:30 PM,41.0,35.6,81,29.80,6.2,SW,12.7,-,N/A,,Partly Cloudy,230,2012-11-23 17:30:00
6:00 PM,39,35,80,29.85,25,SW,8.9,,,,Scattered Clouds,230,2012-11-23 18:00:00
6:00 PM,39.2,35.6,87,29.83,6.2,WSW,8.1,-,N/A,,Partly Cloudy,240,2012-11-23 18:00:00
6:30 PM,39.2,35.6,87,29.83,6.2,SW,8.1,-,N/A,,Partly Cloudy,220,2012-11-23 18:30:00
7:00 PM,39.2,35.6,87,29.86,6.2,SSW,9.2,-,N/A,,Partly Cloudy,210,2012-11-23 19:00:00
7:30 PM,39.2,35.6,87,29.86,6.2,SW,6.9,-,N/A,,Partly Cloudy,220,2012-11-23 19:30:00
8:00 PM,39.2,35.6,87,29.86,6.2,SW,9.2,-,N/A,,Partly Cloudy,230,2012-11-23 20:00:00
8:30 PM,39.2,35.6,87,29.89,6.2,SW,6.9,-,N/A,,Partly Cloudy,220,2012-11-23 20:30:00
9:00 PM,39.2,35.6,87,29.89,6.2,SW,9.2,-,N/A,,Partly Cloudy,220,2012-11-23 21:00:00
9:30 PM,37.4,33.8,87,29.89,6.2,SW,6.9,-,N/A,,Partly Cloudy,220,2012-11-23 21:30:00
10:00 PM,37.4,33.8,87,29.92,6.2,SSW,8.1,-,N/A,,Partly Cloudy,210,2012-11-23 22:00:00
10:30 PM,35.6,33.8,93,29.89,6.2,SW,8.1,-,N/A,,Partly Cloudy,230,2012-11-23 22:30:00
11:00 PM,35.6,33.8,93,29.92,6.2,SW,8.1,-,N/A,,Partly Cloudy,220,2012-11-23 23:00:00
11:30 PM,35.6,33.8,93,29.92,6.2,SW,6.9,-,N/A,,Partly Cloudy,220,2012-11-23 23:30:00